GW1109 Weather Reports


time (UTC)temp
F
wind
direction
speed
knots
gust
knots
rain 1hr
in
rain 24hr
in
rain mn
in
humidity
%
barometer
mb
20240614121539 70 244 2.6 9.6 0.00 0.00 0.00 77 1010.3
20240614120033 68 219 3.5 9.6 0.00 0.00 0.00 77 1010.4
20240614114530 68 221 5.2 10.4 0.00 0.00 0.00 77 1010.2
20240614113030 67 232 6.1 10.4 0.00 0.00 0.00 77 1010.3
20240614111535 67 230 4.3 10.4 0.00 0.00 0.00 77 1010.3
20240614110034 66 218 5.2 13.9 0.00 0.00 0.00 77 1010.1
20240614104534 66 241 5.2 12.2 0.00 0.00 0.00 78 1010.1
20240614103028 65 225 4.3 11.3 0.00 0.00 0.00 78 1010.2
20240614101541 65 241 4.3 9.6 0.00 0.00 0.00 78 1010.1
20240614100034 64 217 3.5 9.6 0.00 0.00 0.00 78 1010.2
20240614094537 64 242 4.3 9.6 0.00 0.00 0.00 78 1010.1
20240614093030 64 231 3.5 8.7 0.00 0.00 0.00 78 1010.0
20240614091537 64 211 4.3 7.8 0.00 0.00 0.00 79 1010.0
20240614090031 63 207 4.3 9.6 0.00 0.00 0.00 79 1009.9
20240614084531 63 220 2.6 6.1 0.00 0.00 0.00 79 1009.9
20240614083039 64 273 2.6 7.0 0.00 0.00 0.00 77 1009.9
20240614081531 65 225 2.6 7.8 0.00 0.00 0.00 76 1009.9
20240614080030 65 258 4.3 8.7 0.00 0.00 0.00 76 1009.9
20240614074540 65 211 3.5 9.6 0.00 0.00 0.00 76 1009.8
20240614073032 65 225 3.5 7.8 0.00 0.00 0.00 76 1010.0
20240614071541 65 247 2.6 6.1 0.00 0.00 0.00 75 1010.1
20240614070036 66 254 3.5 7.0 0.00 0.00 0.00 74 1010.3
20240614064540 66 223 2.6 5.2 0.00 0.00 0.00 76 1010.1
20240614063029 66 241 3.5 7.0 0.00 0.00 0.00 77 1010.3
20240614061530 66 235 0.9 7.0 0.00 0.00 0.00 75 1010.7
20240614060037 67 232 3.5 8.7 0.00 0.00 0.00 74 1010.9
20240614054532 67 229 4.3 9.6 0.00 0.00 0.00 75 1011.1
20240614053032 67 232 3.5 7.8 0.00 0.00 0.00 76 1011.1
20240614051538 67 221 3.5 7.8 0.00 0.00 0.00 76 1011.2
20240614050037 66 219 3.5 8.7 0.00 0.00 0.00 78 1011.2
20240614044537 66 291 1.7 6.1 0.00 0.00 0.00 79 1011.6
20240614043027 66 242 1.7 4.3 0.00 0.00 0.00 81 1011.9
20240614041544 66 0 1.7 6.1 0.00 0.00 0.00 80 1012.1
20240614040047 66 242 0.9 3.5 0.00 0.00 0.00 80 1012.2
20240614034531 66 221 1.7 5.2 0.00 0.08 0.00 78 1012.3
20240614033039 67 217 0.9 4.3 0.00 0.08 0.00 75 1012.6
20240614031535 68 221 2.6 7.8 0.00 0.08 0.00 72 1012.7
20240614030030 70 264 4.3 9.6 0.00 0.08 0.00 69 1012.5
20240614024535 70 236 3.5 10.4 0.00 0.10 0.00 68 1012.6
20240614023033 70 213 4.3 13.0 0.00 0.10 0.00 69 1012.2
20240614021535 68 192 2.6 7.8 0.00 0.10 0.00 73 1012.4
20240614020035 67 202 1.7 3.5 0.00 0.10 0.00 76 1012.6
20240614014533 67 239 0.0 2.6 0.00 0.10 0.00 74 1012.9
20240614013032 67 248 0.0 4.3 0.00 0.10 0.00 73 1012.9
20240614011548 67 0 0.9 2.6 0.00 0.10 0.00 75 1012.8
20240614010033 67 0 0.9 3.5 0.00 0.10 0.00 76 1012.6
20240614004535 67 0 0.0 2.6 0.00 0.10 0.00 75 1012.8
20240614003034 68 0 0.0 2.6 0.00 0.10 0.00 73 1013.0
20240614001540 69 167 0.0 2.6 0.00 0.10 0.00 69 1012.9
20240614000034 70 0 0.0 2.6 0.00 0.10 0.00 65 1012.9
20240613234616 71 189 0.9 4.3 0.00 0.10 0.00 63 1013.2
20240613233030 72 175 1.7 7.0 0.00 0.10 0.00 61 1013.1
20240613231540 73 140 0.9 6.1 0.00 0.10 0.00 60 1012.9
20240613230041 74 141 0.0 5.2 0.00 0.10 0.00 59 1012.8
20240613224532 76 139 1.7 5.2 0.00 0.10 0.00 54 1012.9
20240613223037 77 136 2.6 4.3 0.00 0.10 0.00 53 1013.1
20240613221537 76 197 3.5 7.8 0.00 0.10 0.00 51 1013.1
20240613220036 76 148 1.7 7.8 0.00 0.10 0.00 51 1012.9
20240613214531 77 165 2.6 7.0 0.00 0.10 0.00 50 1012.8
20240613213037 79 206 5.2 8.7 0.00 0.10 0.00 44 1013.0
20240613211533 78 206 2.6 8.7 0.00 0.10 0.00 42 1013.1
20240613210038 79 210 3.5 8.7 0.00 0.10 0.00 40 1013.2
20240613204534 79 241 4.3 12.2 0.00 0.10 0.00 39 1013.2
20240613203029 79 229 3.5 10.4 0.00 0.10 0.00 45 1013.0
20240613201541 79 219 2.6 8.7 0.00 0.10 0.00 42 1013.2
20240613200034 79 198 4.3 9.6 0.00 0.10 0.00 42 1013.2
20240613194533 79 165 2.6 9.6 0.00 0.10 0.00 44 1013.3
20240613193033 79 241 2.6 7.0 0.00 0.10 0.00 45 1013.5
20240613191529 78 241 3.5 10.4 0.00 0.10 0.00 44 1013.6
20240613190037 78 200 2.6 8.7 0.00 0.10 0.00 41 1013.7
20240613184536 77 321 3.5 8.7 0.00 0.10 0.00 40 1013.8
20240613183050 77 238 5.2 8.7 0.00 0.10 0.00 44 1013.8
20240613181544 76 279 2.6 7.0 0.00 0.10 0.00 45 1013.9
20240613180034 76 262 3.5 8.7 0.00 0.10 0.00 45 1014.1
20240613174601 75 290 1.7 8.7 0.00 0.10 0.00 43 1014.1
20240613173032 75 269 2.6 7.8 0.00 0.10 0.00 44 1014.2
20240613171609 75 190 2.6 9.6 0.00 0.10 0.00 47 1014.2
20240613170036 75 299 1.7 7.8 0.00 0.10 0.00 52 1014.4
20240613164532 74 260 2.6 8.7 0.00 0.12 0.00 55 1014.8
20240613163033 73 96 0.9 3.5 0.00 0.12 0.00 53 1014.8
20240613161539 73 0 2.6 7.0 0.00 0.12 0.00 51 1014.9
20240613160029 73 19 1.7 3.5 0.00 0.12 0.00 53 1015.1
20240613154535 73 190 1.7 7.0 0.00 0.12 0.00 54 1015.0
20240613153031 72 260 1.7 7.8 0.00 0.12 0.00 55 1015.0
20240613151537 71 240 2.6 8.7 0.00 0.12 0.00 58 1015.3
20240613150031 71 261 2.6 9.6 0.00 0.12 0.00 61 1015.3
20240613144550 71 273 3.5 9.6 0.00 0.12 0.00 62 1015.2
20240613143029 71 314 4.3 10.4 0.00 0.12 0.00 62 1015.4
20240613141531 70 5 3.5 8.7 0.00 0.12 0.00 63 1015.3
20240613140030 70 291 6.1 10.4 0.00 0.12 0.00 62 1015.4
20240613134544 70 305 2.6 8.7 0.00 0.12 0.00 71 1015.5
20240613133032 70 281 2.6 7.8 0.00 0.12 0.00 73 1015.6
20240613131531 70 306 0.9 7.0 0.00 0.12 0.00 76 1015.5
20240613130037 69 228 1.7 6.1 0.00 0.12 0.00 76 1015.5
20240613124551 68 297 3.5 7.0 0.00 0.12 0.00 78 1015.4
20240613123029 68 292 2.6 8.7 0.00 0.12 0.00 80 1015.5